Regional Weather Roundup
Issued by NWS Newport/Morehead, NC

Current Version | Previous Version | Graphics & Text | Print | Product List | Glossary Off
Versions: 1 2 3 4 5 6 7 8 9 10 11 12 13 14 15 16 17 18 19 20 21 22 23 24 25 26 27 28 29 30 31 32 33 34 35 36 37 38 39 40 41 42 43 44 45 46 47 48 49 50

000
ASUS42 KMHX 311325
RWRMHX
WEATHER ROUNDUP FOR EASTERN NORTH CAROLINA
NATIONAL WEATHER SERVICE NEWPORT/MOREHEAD CITY NC
900 AM EDT TUE MAY 31 2016

NOTE: "FAIR" INDICATES FEW OR NO CLOUDS BELOW 12,000 FEET
WITH NO SIGNIFICANT WEATHER AND/OR OBSTRUCTIONS TO VISIBILITY

NCZ015>017-031-032-045>047-102-103-311400-
NORTH COAST

CITY           SKY/WX    TMP DP  RH WIND       PRES   REMARKS
EDENTON        CLOUDY   N/A N/A N/A NE6       29.98R
ELIZABETH CITY CLOUDY    76  70  82 N8        29.97R
KITTY HAWK     FOG       70  70 100 CALM      29.96S VSB 1/4
MANTEO         NOT AVBL

$$

NCZ045>047-081-094-103-104-311400-
CENTRAL COAST

CITY           SKY/WX    TMP DP  RH WIND       PRES   REMARKS
FRISCO         CLOUDY    74  72  93 VRB6      29.96R

$$

NCZ095-097-098-100-101-311400-
SOUTHERN COAST

CITY           SKY/WX    TMP DP  RH WIND       PRES   REMARKS
BEAUFORT       PTSUNNY   79  73  83 NE7       29.93R
CEDAR ISLAND   NOT AVBL
JACKSONVILLE   CLOUDY    75  71  87 NE9       29.93R
PINEY ISLAND   PTSUNNY  N/A N/A N/A NE14      29.94R
WILMINGTON     LGT RAIN  76  72  87 N9        29.91S


$$

NCZ011>013-027>030-043-044-078>080-089-090>093-098-311400-
COASTAL PLAIN

CITY           SKY/WX    TMP DP  RH WIND       PRES   REMARKS
AHOSKIE        CLOUDY    71  68  92 N3        29.98S
CLINTON        CLOUDY    73  72  97 N8        29.96R
ELIZABETHTOWN  CLOUDY    72  72 100 CALM      29.94S
GOLDSBORO      CLOUDY    72  72 100 N6        29.95R
GREENVILLE     CLOUDY    73  70  88 N6        29.98S
HAVELOCK       CLOUDY    76  73  91 NE8       29.95R
KENANSVILLE    CLOUDY    72  71  98 CALM      29.97R
KINSTON        CLOUDY    72  72 100 NE7       29.96S
NEW BERN       CLOUDY    74  71  91 NE10      29.95S FOG
RICHLANDS      LGT RAIN  72  71  97 NE6       29.95R
ROCKY MOUNT    CLOUDY    73  69  87 N7        29.98R
WASHINGTON     CLOUDY    71  70  99 NE5       29.96R
WHITEVILLE     CLOUDY    73  71  95 N6        29.92S

$$

AMZ130-135-150-152-154-156-158-170-250-252-270-ANZ085-086-088-633-658-670-311400-
MARINE OBSERVATIONS

STATION/POSITION TIME  TEMP    WIND        PRES    WAVE   SWELL
                       AIR SEA DIR/SP/G            HT/PER HT/PER
                 (UTC) (F)     (DEG/KT/KT) (MB)    (FT/S) (FT/S)
CHESAPEAKE LIGHT 1300   69     360/  4/  4 1016.0
64 E VA BEACH    1250   64 65  310/  6/  6 1014.7    5/ 8   5/ 8
DUCK             1300   66 59   60/  5/  6 1014.5
2 E DUCK         1211      63                N/A     3/ 8
OREGON INLET     1300   68 72   10/  6/  8 1014.4
13E OREGON INLT  1300      68                N/A     4/ 9   5/ 9
HATTERAS CG      1300   73 74   50/  3/  8 1014.0
DIAMOND BUOY     1250   79 80  200/ 10/ 10 1013.7    6/ 8   5/ 8
CAPE LOOKOUT     1300   76      40/  5/  6 1013.2
BEAUFORT LAB     1300   77 75   50/  3/  7 1012.7
30 SE NEW RVR IN 1225      76                N/A     5/ 8
27 SE WRIGHTSVLE 1308   75 76   90/  2/  4 1012.9
5 SE WRIGHTSVLE  1208   75 76   50/  4/  8 1013.2
225 S CAPE HAT   1250   76 76  160/ 10/ 12 1015.5    4/ 8   3/ 8
41 SE CHARLESTON 1250   74 77  320/ 10/ 12 1012.4    4/ 9   3/ 9

$$




USA.gov is the U.S. government's official web portal to all federal, state and local government web resources and services.